Tracking 19832 objects as of 25-Aug-2019
HD Live streaming from Space Station
objects crossing your sky now

COSMOS 2251 DEB

Track COSMOS 2251 DEB now!
10-day predictions


NORAD ID: 36459
Int'l Code: 1993-036BBJ
Perigee: 762.4 km
Apogee: 967.1 km
Inclination: 74.0 °
Period: 102.1 minutes
Semi major axis: 7235 km
RCS: 0.0054 m2 (small)
Launch date: June 16, 1993
Source: Commonwealth of Independent States (former USSR) (CIS)
Launch site: PLESETSK MISSILE AND SPACE COMPLEX (PKMTR)

Note: This is SATELLITE DEBRIS
aabbcc
Your satellite tracking list
Your tracking list is empty




NASA's NSSDC Master Catalog

Two Line Element Set (TLE):
1 36459U 93036BBJ 19234.36265657 +.00000224 +00000-0 +12661-3 0  9994
2 36459 074.0157 128.3575 0141480 053.0779 308.3223 14.10519105283240
Source of the keplerian elements: AFSPC